Weather History for Carmi, IL

Change the Weather History Date:

Tuesday, March 11, 2014

  Actual Average (KEVV) Record (KEVV)
Temperature  
Mean Temperature 62 °F 44 °F  
Max Temperature 77 °F 55 °F 82 °F (1911)
Min Temperature 47 °F 34 °F 16 °F (1998)
Degree Days  
Heating Degree Days 3 21  
Month to date heating degree days 246  
Since 1 July heating degree days 3820  
Cooling Degree Days 0 0  
Month to date cooling degree days 0  
Year to date cooling degree days 0  
Growing Degree Days 12 (Base 50)    
Moisture  
Dew Point 48 °F    
Average Humidity 64    
Maximum Humidity 90    
Minimum Humidity 28    
Precipitation  
Precipitation 0.00 in 0.13 in 3.68 in (1935)
Month to date precipitation 1.36  
Year to date precipitation 7.63  
Snow  
Snow 0.00 in 0.10 in 0.50 in (1960)
Month to date snowfall 0.6  
Since 1 July snowfall 11.3  
Snow Depth -    
Sea Level Pressure  
Sea Level Pressure 29.65 in    
Wind  
Wind Speed 12 mph (SSW)    
Max Wind Speed 20 mph    
Max Gust Speed 26 mph    
Visibility 10 miles    
Events Rain    
T = Trace of Precipitation, MM = Missing Value Source: NWS Daily Summary

Daily Weather History Graph

Daily Weather History Graph

Search for Another Location

Airport:

Trip Planner

Search our weather history database for the weather conditions in past years. The results will help you decide how hot, cold, wet, or windy it might be!

Date:

Astronomy

Mar. 11, 2014 Rise Set
Actual Time 7:09 AM CDT 6:55 PM CDT
Civil Twilight 6:43 AM CDT 7:22 PM CDT
Nautical Twilight 6:12 AM CDT 7:52 PM CDT
Astronomical Twilight 5:42 AM CDT 8:23 PM CDT
Moon 2:35 PM CDT (3/11) 3:59 AM CDT (3/11)
Length of Visible Light 12h 38m
Length of Day
11h 46m
Waxing Gibbous, 78% of the Moon is Illuminated
Mar 11
Waxing Gibbous
Mar 16
Full
Mar 23
Last Quarter
Mar 30
New
Apr 7
First Quarter

Hourly Weather History & Observations

Time (CDT) Temp. Dew Point Humidity Pressure Visibility Wind Dir Wind Speed Gust Speed Precip Events Conditions
12:15 AM 55.8 °F 48.6 °F 77% 29.76 in 10.0 mi SSW 16.1 mph 20.7 mph N/A   Clear
12:35 AM 55.8 °F 48.2 °F 76% 29.76 in 10.0 mi SSW 16.1 mph 23.0 mph N/A   Clear
12:55 AM 55.6 °F 48.2 °F 76% 29.76 in 10.0 mi SW 15.0 mph 19.6 mph N/A   Clear
1:15 AM 55.8 °F 47.8 °F 75% 29.75 in 10.0 mi SW 15.0 mph 20.7 mph N/A   Clear
1:35 AM 55.8 °F 47.5 °F 74% 29.75 in 10.0 mi SSW 13.8 mph 19.6 mph N/A   Clear
1:55 AM 55.8 °F 47.5 °F 74% 29.75 in 10.0 mi SW 15.0 mph 21.9 mph N/A   Clear
2:15 AM 55.6 °F 47.3 °F 74% 29.74 in 10.0 mi SW 13.8 mph 18.4 mph N/A   Clear
2:35 AM 55.4 °F 46.9 °F 73% 29.74 in 10.0 mi SW 12.7 mph - N/A   Clear
2:55 AM 55.4 °F 46.8 °F 73% 29.74 in 10.0 mi SW 18.4 mph 23.0 mph N/A   Clear
3:15 AM 55.2 °F 46.8 °F 73% 29.74 in 10.0 mi SW 15.0 mph - N/A   Clear
3:35 AM 54.5 °F 46.6 °F 75% 29.72 in 10.0 mi SW 15.0 mph - N/A   Clear
3:55 AM 54.0 °F 46.6 °F 76% 29.72 in 10.0 mi SW 16.1 mph - N/A   Clear
4:15 AM 53.8 °F 46.6 °F 77% 29.72 in 10.0 mi SW 13.8 mph - N/A   Clear
4:35 AM 52.9 °F 46.4 °F 79% 29.72 in 10.0 mi SW 12.7 mph - N/A   Clear
4:55 AM 52.5 °F 46.2 °F 79% 29.72 in 10.0 mi SW 12.7 mph - N/A   Clear
5:15 AM 52.3 °F 46.4 °F 80% 29.72 in 10.0 mi SW 11.5 mph - N/A   Clear
5:35 AM 52.0 °F 45.9 °F 80% 29.72 in 10.0 mi SW 11.5 mph - N/A   Clear
5:55 AM 51.4 °F 45.7 °F 81% 29.72 in 10.0 mi SW 10.4 mph - N/A   Clear
6:15 AM 51.1 °F 45.5 °F 81% 29.72 in 10.0 mi SSW 9.2 mph - N/A   Clear
6:35 AM 50.9 °F 45.0 °F 80% 29.72 in 10.0 mi SSW 5.8 mph - N/A   Clear
6:55 AM 51.3 °F 45.0 °F 79% 29.72 in 10.0 mi SSW 3.5 mph - N/A   Clear
7:15 AM 48.4 °F 43.9 °F 84% 29.71 in 10.0 mi SSE 6.9 mph - N/A   Clear
7:35 AM 47.8 °F 44.6 °F 89% 29.72 in 10.0 mi South 6.9 mph - N/A   Clear
7:55 AM 49.1 °F 45.3 °F 87% 29.72 in 10.0 mi South 8.1 mph - N/A   Clear
8:15 AM 50.9 °F 45.9 °F 83% 29.72 in 10.0 mi South 8.1 mph - N/A   Clear
8:35 AM 52.3 °F 46.8 °F 81% 29.72 in 10.0 mi South 6.9 mph - N/A   Clear
8:55 AM 54.3 °F 46.9 °F 76% 29.72 in 10.0 mi South 8.1 mph - N/A   Clear
9:15 AM 57.2 °F 46.8 °F 68% 29.72 in 10.0 mi SSW 5.8 mph - N/A   Clear
9:35 AM 61.2 °F 47.1 °F 60% 29.72 in 10.0 mi SW 10.4 mph - N/A   Clear
9:55 AM 62.2 °F 46.0 °F 55% 29.72 in 10.0 mi SW 11.5 mph - N/A   Clear
10:15 AM 63.5 °F 46.4 °F 54% 29.72 in 10.0 mi SW 11.5 mph 17.3 mph N/A   Clear
10:35 AM 64.4 °F 46.4 °F 52% 29.72 in 10.0 mi SW 12.7 mph - N/A   Clear
10:55 AM 65.5 °F 46.8 °F 51% 29.70 in 10.0 mi SW 9.2 mph - N/A   Clear
11:15 AM 66.9 °F 47.5 °F 50% 29.69 in 10.0 mi SSW 10.4 mph - N/A   Clear
11:35 AM 68.2 °F 47.3 °F 47% 29.69 in 10.0 mi SW 9.2 mph - N/A   Clear
11:55 AM 69.3 °F 47.3 °F 45% 29.69 in 10.0 mi SSW 11.5 mph - N/A   Clear
12:15 PM 70.7 °F 47.1 °F 43% 29.69 in 10.0 mi SW 10.4 mph - N/A   Clear
12:35 PM 71.6 °F 47.3 °F 42% 29.68 in 10.0 mi SSW 5.8 mph - N/A   Clear
12:55 PM 72.9 °F 46.2 °F 39% 29.68 in 10.0 mi SW 8.1 mph - N/A   Clear
1:15 PM 73.9 °F 47.3 °F 39% 29.67 in 10.0 mi SSW 11.5 mph - N/A   Clear
1:35 PM 74.5 °F 45.7 °F 36% 29.66 in 10.0 mi SW 12.7 mph - N/A   Clear
1:55 PM 75.4 °F 46.0 °F 35% 29.64 in 10.0 mi SSW 11.5 mph 16.1 mph N/A   Clear
2:15 PM 75.2 °F 44.1 °F 33% 29.63 in 10.0 mi SW 15.0 mph 19.6 mph N/A   Clear
2:35 PM 75.6 °F 43.7 °F 32% 29.63 in 10.0 mi SSW 18.4 mph 21.9 mph N/A   Clear
2:55 PM 75.9 °F 42.8 °F 31% 29.62 in 10.0 mi SSW 17.3 mph 21.9 mph N/A   Clear
3:15 PM 76.3 °F 41.2 °F 28% 29.61 in 10.0 mi SSW 19.6 mph 26.5 mph N/A   Clear
3:35 PM 76.1 °F 41.7 °F 29% 29.60 in 10.0 mi SSW 13.8 mph - N/A   Clear
3:55 PM 76.3 °F 43.0 °F 30% 29.59 in 10.0 mi SW 13.8 mph 20.7 mph N/A   Clear
4:15 PM 75.7 °F 44.6 °F 33% 29.58 in 10.0 mi SSW 10.4 mph - N/A   Clear
4:35 PM 77.0 °F 44.4 °F 31% 29.58 in 10.0 mi SSW 11.5 mph - N/A   Scattered Clouds
4:55 PM 76.1 °F 46.2 °F 35% 29.58 in 10.0 mi SSW 12.7 mph - N/A   Scattered Clouds
5:15 PM 74.1 °F 47.1 °F 38% 29.58 in 10.0 mi South 10.4 mph - N/A   Clear
5:35 PM 72.7 °F 49.6 °F 44% 29.57 in 10.0 mi South 12.7 mph - N/A   Clear
5:55 PM 71.4 °F 52.2 °F 51% 29.56 in 10.0 mi South 12.7 mph - N/A   Clear
6:15 PM 70.0 °F 53.8 °F 56% 29.56 in 10.0 mi South 9.2 mph - N/A   Clear
6:35 PM 68.7 °F 54.5 °F 60% 29.56 in 10.0 mi South 9.2 mph - N/A   Clear
6:55 PM 66.2 °F 54.5 °F 66% 29.56 in 10.0 mi South 9.2 mph - N/A   Clear
7:15 PM 65.5 °F 54.5 °F 68% 29.57 in 10.0 mi South 10.4 mph - N/A   Scattered Clouds
7:35 PM 64.4 °F 54.9 °F 71% 29.57 in 10.0 mi South 8.1 mph - N/A   Mostly Cloudy
7:55 PM 64.4 °F 54.9 °F 71% 29.56 in 10.0 mi South 8.1 mph - N/A   Mostly Cloudy
8:15 PM 63.7 °F 54.9 °F 73% 29.56 in 10.0 mi South 6.9 mph - N/A   Scattered Clouds
8:35 PM 63.5 °F 55.0 °F 74% 29.56 in 10.0 mi South 6.9 mph - N/A   Scattered Clouds
8:55 PM 63.5 °F 55.4 °F 75% 29.55 in 10.0 mi South 6.9 mph - N/A   Mostly Cloudy
9:15 PM 63.0 °F 55.4 °F 76% 29.54 in 10.0 mi South 6.9 mph - N/A   Scattered Clouds
9:35 PM 62.8 °F 55.8 °F 78% 29.54 in 10.0 mi South 5.8 mph - N/A   Mostly Cloudy
9:55 PM 61.7 °F 55.8 °F 81% 29.53 in 10.0 mi South 5.8 mph - N/A   Overcast
10:15 PM 61.9 °F 55.9 °F 81% 29.52 in 10.0 mi South 8.1 mph - N/A Rain Light Rain
10:35 PM 61.3 °F 56.5 °F 84% 29.51 in 10.0 mi South 6.9 mph - N/A Rain Light Rain
10:55 PM 59.2 °F 55.9 °F 89% 29.49 in 10.0 mi South 8.1 mph - N/A   Mostly Cloudy
11:15 PM 59.4 °F 55.8 °F 88% 29.49 in 10.0 mi South 5.8 mph - N/A   Scattered Clouds
11:35 PM 57.9 °F 54.9 °F 90% 29.49 in 10.0 mi South 6.9 mph - N/A   Scattered Clouds
11:55 PM 61.7 °F 56.1 °F 82% 29.48 in 10.0 mi South 12.7 mph - N/A   Clear